User: anonymous   Login
Location: Unspecified
(0.0000°N, 0.0000°E)
Time: 00:53:57
(UTC+00:00)
Language:

Astrid - Orbit

View from above orbital plane
View from above orbital plane
View from above satellite
View from above satellite

Ground track
Ground track

The orbit data is extracted from the following two-line orbital elements,

1 23464U 95002B   21023.52106469  .00000064  00000-0  53697-4 0  9990
2 23464  82.9265  36.1540 0039915 222.3456 137.4616 13.72608219301846
Epoch (UTC): 23 January 2021 12:30:19
Eccentricity: 0.0039915
inclination: 82.9265°
perigee height: 961 km
apogee height: 1019 km
right ascension of ascending node: 36.1540°
argument of perigee: 222.3456°
revolutions per day: 13.72608219
mean anomaly at epoch: 137.4616°
orbit number at epoch: 30184

The dashed part of the orbit path shows where the satellite is in the earth's shadow,  

DLR